GFSFLT1_925_temp_060.txt.gz
Temp
11 11 11 12 12 12 12 12 12 12 12 14 14 15 15 16 17 17 16 17 17 17 17 17 16 16 16 16 16 15 16 15
11 11 11 11 11 11 12 12 11 13 14 13 14 14 14 15 16 16 17 16 17 16 17 18 16 17 16 17 16 15 15 15
12 12 11 11 11 11 11 11 11 11 13 13 14 14 15 16 15 16 16 16 17 17 17 18 17 18 16 17 16 15 15 15
12 12 11 11 11 11 11 11 12 12 12 13 14 13 14 15 15 17 18 17 15 16 17 17 17 16 17 17 17 16 15 14
12 12 11 11 11 11 11 11 11 12 13 13 13 14 13 14 16 16 16 17 16 17 17 17 17 17 17 17 16 16 16 15
11 11 11 11 11 11 11 11 11 11 12 12 12 13 14 14 16 16 16 16 16 17 17 17 17 17 16 16 16 15 15 14
12 11 10 10 11 11 11 10 11 11 11 12 13 13 14 15 15 15 16 17 16 17 17 17 17 17 16 17 16 15 14 14
12 11 10 10 10 10 10 10 10 10 11 11 12 13 14 14 15 15 16 16 16 17 17 17 17 16 16 17 16 15 14 13
13 12 11 10 10 10 10 10 10 10 11 11 12 12 13 13 14 15 15 16 16 17 17 16 16 16 17 16 15 15 14 14
14 13 13 12 11 11 10 10 10 10 11 11 12 12 12 12 13 14 14 15 16 16 16 16 16 15 15 14 15 14 13 13
15 14 13 13 13 12 12 12 12 12 11 12 12 12 12 12 13 13 13 14 14 15 15 16 15 15 15 14 13 13 13 13
15 15 15 14 13 13 12 12 12 12 12 12 12 12 12 12 12 13 13 13 14 14 15 15 14 14 13 13 12 12 12 12
16 15 15 15 14 13 12 12 12 13 13 13 12 12 12 13 13 13 12 13 13 14 14 15 15 14 14 13 13 12 12 12
15 15 15 15 15 14 13 12 13 13 13 13 13 13 13 12 12 12 12 13 13 14 13 12 14 14 13 13 12 12 12 12
15 15 15 16 15 15 14 14 13 13 13 13 13 13 13 13 13 13 13 13 13 15 12 12 13 14 13 12 12 11 11 10
16 15 16 16 16 16 15 15 14 14 13 13 13 13 14 13 13 13 13 13 13 14 13 12 12 13 12 12 11 10 10 9
18 16 15 15 16 16 16 16 15 14 14 13 14 14 14 14 13 13 13 13 13 13 13 12 12 12 12 12 11 10 9 8
17 17 17 17 16 17 16 16 16 15 14 14 14 14 14 14 13 13 13 13 12 12 12 11 11 11 11 11 10 9 7 6
17 17 16 18 18 17 17 17 17 15 14 14 14 14 14 13 13 13 12 12 11 11 11 11 10 11 10 8 7 7 6 5

GFSFLT1_925_temp_063.txt.gz
Temp
13 12 12 12 12 12 12 12 12 12 12 13 14 14 15 16 16 17 16 17 17 17 16 16 17 16 16 16 16 15 15 15
12 12 12 11 12 12 12 12 12 12 12 13 14 14 14 15 15 17 17 17 17 17 16 17 16 17 17 15 15 15 15 15
13 13 12 11 11 11 12 12 12 12 12 12 13 12 12 15 15 16 17 17 17 16 16 16 17 15 17 15 15 14 14 15
13 13 12 12 11 11 11 11 12 12 12 12 13 13 14 14 15 17 18 16 16 16 15 17 16 15 17 16 15 15 14 14
14 14 13 12 12 12 11 11 11 11 12 12 13 14 13 14 14 15 16 16 16 16 16 16 15 17 16 17 18 15 15 14
15 14 13 12 12 12 12 11 11 11 12 12 13 14 14 14 14 15 16 16 16 17 18 17 15 18 17 17 16 15 16 14
16 14 13 12 12 12 12 11 12 11 11 12 13 13 14 14 15 15 16 16 17 17 17 16 15 16 16 16 16 15 15 14
15 14 13 12 11 12 11 12 12 11 12 12 12 12 13 14 15 15 15 15 16 17 17 16 16 16 16 15 16 15 15 14
16 15 13 12 11 12 12 11 11 11 11 12 12 12 12 13 14 14 15 14 15 15 16 16 16 16 16 15 15 15 13 15
17 16 14 13 12 11 11 11 11 11 11 11 12 12 12 13 13 13 14 15 16 16 16 16 16 16 16 15 15 15 13 13
17 17 15 14 13 12 11 11 12 12 11 11 11 11 12 12 12 12 13 13 14 14 15 15 15 15 15 15 14 13 12 13
18 17 16 15 14 13 12 12 12 12 12 11 11 11 11 12 12 12 13 13 13 13 14 14 15 16 15 14 14 12 12 11
19 18 17 16 15 14 13 12 12 12 12 12 11 11 11 11 11 12 12 12 12 13 13 13 14 15 15 14 12 12 12 12
19 18 17 17 16 15 14 13 12 13 12 12 12 11 11 11 12 12 12 12 12 12 13 13 13 14 14 14 13 12 11 12
20 19 18 18 16 16 15 14 13 13 13 13 12 12 12 12 12 12 12 12 12 12 13 13 13 13 13 13 12 12 11 11
20 20 19 19 17 16 16 15 14 13 13 13 13 13 12 12 12 12 12 12 13 13 13 13 12 12 12 11 12 12 11 11
21 20 20 18 18 17 16 16 15 14 13 13 14 13 13 13 13 13 12 12 13 12 12 12 12 11 12 12 12 11 11 10
21 20 19 19 19 17 17 16 15 14 14 14 14 14 13 13 13 13 13 12 12 12 12 12 12 12 12 11 11 10 10 9
20 20 19 19 19 18 18 17 16 15 15 15 14 14 14 14 13 13 13 12 12 12 12 12 12 12 12 11 9 8 8 6

GFSFLT1_925_temp_066.txt.gz
Temp
18 15 14 13 13 13 13 12 12 12 12 13 13 14 14 14 14 15 15 16 16 16 16 15 15 16 16 16 16 16 16 17
18 15 13 13 12 13 12 12 11 12 12 13 13 13 13 14 13 14 14 14 14 15 16 14 15 16 16 16 15 15 15 15
18 16 15 13 12 12 12 12 12 13 13 13 15 13 14 14 15 15 14 14 16 17 15 15 15 16 15 15 15 15 15 14
18 17 15 13 13 12 12 12 12 13 13 12 13 13 13 14 15 15 14 14 16 17 15 15 15 15 15 15 15 16 16 15
21 19 16 15 13 13 13 12 12 12 12 12 13 13 13 15 15 15 14 14 15 16 15 15 14 15 14 14 15 15 16 16
21 20 18 16 15 13 14 13 12 12 12 12 12 13 14 15 14 14 15 14 15 16 16 16 16 16 16 16 14 14 15 16
23 20 19 18 15 15 14 14 13 11 12 12 12 14 14 14 14 13 14 14 15 16 16 16 16 16 16 15 16 16 16 16
23 21 20 18 16 15 14 15 15 12 11 12 12 13 13 13 13 14 14 14 13 14 15 16 16 17 17 16 15 16 16 15
23 23 21 19 17 16 15 15 16 14 13 13 14 13 13 14 14 14 14 14 14 15 15 16 17 17 16 16 15 16 15 15
24 23 21 20 17 17 16 16 16 15 14 13 13 14 14 15 15 14 14 14 15 15 15 16 17 16 16 16 15 16 15 15
24 23 21 20 18 17 16 16 17 16 15 15 15 15 15 15 15 16 16 16 16 16 16 15 16 16 16 16 16 16 16 15
25 24 22 20 19 17 17 16 16 16 16 15 15 15 15 15 15 15 16 16 16 15 15 16 16 16 16 16 15 16 15 14
26 24 23 21 20 19 17 16 16 16 16 16 15 15 15 15 15 15 15 15 15 15 15 16 16 16 16 16 15 15 14 12
26 25 24 22 21 20 18 17 17 16 16 16 16 15 15 15 15 15 15 15 15 15 15 15 15 16 16 15 14 13 14 14
26 25 24 23 22 21 20 18 17 17 17 16 16 15 15 15 15 15 15 15 15 14 15 15 15 15 15 15 14 12 13 14
27 26 26 25 23 22 21 20 18 18 17 17 17 16 16 15 15 15 15 14 14 14 15 15 15 15 15 15 15 13 12 11
27 27 27 26 25 23 21 20 19 18 18 18 18 17 16 16 15 15 15 15 15 15 15 15 15 14 14 14 14 14 11 11
26 26 26 26 26 24 23 21 20 19 18 18 18 17 17 16 16 16 15 15 15 14 15 15 15 15 14 13 13 12 11 11
24 25 25 24 23 24 23 23 21 20 19 18 18 18 17 17 16 16 16 16 15 14 14 14 14 14 13 12 13 12 10 10

GFSFLT1_925_temp_069.txt.gz
Temp
24 21 19 15 14 13 13 13 13 13 13 13 13 12 13 12 13 14 15 16 16 16 17 17 17 18 18 18 18 18 19 18
24 20 18 15 13 13 13 13 12 13 13 13 12 12 12 12 13 15 15 16 15 16 16 16 16 17 17 18 18 18 18 18
24 20 18 15 13 13 13 12 12 13 13 13 14 12 12 12 13 14 16 17 16 17 17 16 16 16 17 17 16 16 17 16
24 22 19 16 14 14 13 13 13 13 14 14 13 13 13 13 13 14 14 15 16 17 16 15 15 16 17 16 16 17 17 16
25 23 21 18 15 14 14 13 13 13 14 15 14 15 13 13 14 13 14 14 15 15 15 15 16 16 17 16 16 16 17 16
26 24 22 20 16 14 14 13 13 14 14 14 14 14 16 14 14 14 13 14 14 14 14 16 16 16 16 16 16 16 16 16
26 24 23 21 18 15 14 13 13 13 14 13 13 14 15 14 15 15 14 14 14 14 15 16 16 16 15 16 16 15 16 16
27 25 24 22 20 18 16 15 13 12 12 13 14 15 14 14 14 15 15 13 14 14 15 16 15 15 15 16 15 16 15 16
27 26 25 23 21 19 18 16 15 13 12 12 14 14 14 15 15 16 14 14 14 15 15 15 15 15 15 16 16 16 17 16
27 27 25 23 22 20 18 18 18 15 13 12 13 14 15 15 15 15 15 15 15 14 15 15 15 15 15 16 17 17 16 16
28 27 25 24 22 21 19 18 19 18 15 14 13 14 14 15 15 15 15 15 15 15 15 15 15 15 15 16 17 17 16 16
28 27 26 24 23 21 20 19 19 19 18 17 15 15 15 15 16 16 16 16 15 15 15 15 15 15 16 16 16 17 16 16
28 28 27 25 24 22 21 20 19 20 19 18 17 16 16 16 16 17 17 17 16 16 16 16 16 16 16 17 17 17 17 17
29 28 27 26 24 23 22 20 20 20 19 19 18 18 17 17 17 17 17 17 17 17 17 17 17 17 17 17 17 17 17 17
29 28 28 27 25 24 23 22 20 20 20 19 19 18 17 17 17 17 17 17 17 17 17 17 17 17 17 17 17 17 17 16
29 29 28 28 26 25 24 23 21 20 20 20 20 19 18 17 17 17 17 16 16 16 17 17 17 17 17 17 17 17 17 16
28 28 29 29 28 26 25 24 23 21 20 20 20 19 18 18 18 17 17 16 16 16 16 17 16 16 16 16 16 16 16 16
25 26 27 27 28 28 26 25 24 22 21 20 20 20 19 19 18 17 17 17 16 16 16 16 16 16 16 16 16 15 15 15
23 25 25 25 25 25 25 26 25 23 22 21 21 20 20 19 18 18 18 17 17 16 16 16 16 16 16 16 15 15 14 14

GFSFLT1_925_temp_072.txt.gz
Temp
25 23 21 16 16 14 14 14 13 13 13 13 13 12 12 12 12 13 14 14 14 17 15 17 16 17 19 18 19 19 19 19
25 22 20 16 15 13 13 13 13 13 13 13 13 12 12 12 12 12 13 14 16 17 17 18 18 18 18 18 18 18 19 19
25 21 19 16 15 13 13 13 13 13 13 13 12 13 12 12 13 13 13 14 16 16 17 17 17 17 17 18 18 18 18 18
25 22 19 16 15 14 13 13 13 13 13 13 12 12 12 12 12 13 14 14 16 16 16 17 17 17 17 17 17 17 17 17
26 23 20 18 16 15 14 13 13 13 13 13 12 12 12 13 13 14 15 16 16 16 16 16 17 16 16 16 17 16 16 17
26 24 22 19 17 15 14 14 13 13 14 14 13 13 13 13 14 14 14 15 16 16 16 16 16 16 16 17 16 16 17 16
27 24 23 20 17 15 15 14 14 14 14 14 14 14 14 13 13 14 13 14 14 15 15 15 16 16 16 16 16 16 17 16
27 24 23 21 17 15 14 14 14 14 14 14 14 15 14 14 14 14 13 13 13 14 15 14 15 16 16 16 16 16 16 16
27 25 24 22 19 17 15 14 14 14 13 14 14 14 14 15 14 14 14 14 14 14 14 14 14 16 16 16 15 15 16 16
27 26 24 23 21 19 17 15 14 13 13 13 14 14 15 15 14 14 15 15 14 14 14 14 15 16 16 16 15 15 15 16
27 27 24 24 22 20 19 18 17 14 13 13 13 14 14 14 14 15 15 15 14 14 14 14 15 15 16 16 16 15 15 15
27 27 25 24 23 21 19 19 19 17 14 13 13 13 14 14 15 15 15 15 15 15 14 14 14 15 15 15 15 15 15 16
28 27 26 25 24 22 20 19 19 19 17 15 14 14 14 14 15 15 15 15 15 15 15 14 14 15 15 15 15 15 15 15
28 27 26 25 24 23 22 20 19 20 20 18 16 15 14 15 15 15 15 15 15 15 15 15 15 15 15 15 15 15 15 16
29 28 27 26 25 24 23 21 20 20 20 20 18 17 15 15 15 15 16 16 16 16 15 15 16 15 16 15 15 15 16 16
28 27 27 27 26 25 24 23 21 21 20 20 20 18 18 17 16 16 16 16 17 17 17 16 16 16 16 16 16 16 16 16
25 26 26 26 27 26 25 24 23 21 20 20 20 20 19 18 17 17 17 17 16 17 17 17 17 17 17 17 17 17 17 16
22 23 23 23 24 24 25 25 24 23 21 20 20 20 20 19 18 17 17 17 17 16 16 16 16 16 17 17 17 17 16 16
20 20 20 20 19 18 19 21 23 24 23 22 21 20 20 20 19 18 18 17 17 16 16 16 16 16 16 16 16 16 16 15

GFSFLT1_925_temp_078.txt.gz
Temp
18 16 15 16 16 16 16 13 13 13 14 14 14 14 14 14 14 14 15 14 15 16 15 15 17 16 16 16 17 17 17 17
17 15 14 15 15 15 15 13 13 13 13 13 14 13 14 14 14 14 15 15 15 16 16 15 15 16 16 16 16 17 17 17
16 14 14 13 13 15 15 13 13 13 13 13 13 13 13 13 13 13 14 15 15 16 16 16 16 16 16 16 16 16 16 17
15 14 13 13 13 13 13 13 13 13 13 13 13 13 13 13 13 13 13 14 15 15 15 15 15 16 16 16 17 17 17 16
16 15 13 13 13 14 13 13 13 13 13 12 13 13 12 12 13 13 13 13 14 14 14 15 16 16 17 17 17 17 17 15
16 14 13 13 13 13 13 13 13 13 14 13 12 12 12 12 12 12 12 13 14 14 15 15 16 16 17 16 17 16 18 16
17 15 14 12 13 13 14 13 13 13 13 13 12 12 12 12 12 12 12 12 13 14 15 15 16 16 16 16 15 16 18 18
16 14 13 13 12 12 13 13 13 13 13 13 12 12 12 12 12 12 12 12 13 14 14 15 16 16 15 15 15 17 17 17
17 15 14 13 13 13 13 13 13 13 13 13 12 13 12 12 12 12 12 13 13 14 15 15 16 15 15 14 16 17 17 17
18 16 15 14 13 13 13 13 13 13 13 13 12 13 12 12 13 13 13 13 13 14 15 15 16 16 16 16 16 16 16 16
18 17 15 15 14 14 14 14 14 13 13 13 13 13 13 12 13 13 13 13 13 14 14 15 15 16 16 16 16 16 16 16
19 17 16 15 14 13 13 14 14 14 14 13 13 13 13 13 13 13 13 13 13 14 14 14 14 15 15 15 15 15 15 15
19 18 16 15 14 13 13 13 13 13 14 14 14 13 13 13 13 13 13 13 13 14 14 14 13 14 14 15 14 14 14 13
18 18 17 16 15 14 13 13 13 13 13 13 13 14 13 13 13 13 13 13 13 13 13 13 13 13 13 14 14 14 14 14
17 16 17 17 17 15 15 14 13 13 13 13 13 13 13 14 14 14 13 13 13 13 13 13 13 13 13 13 13 13 13 13
16 15 14 14 14 15 17 16 15 14 13 13 13 13 13 13 14 14 14 13 13 13 13 13 13 12 13 13 12 12 12 12
13 13 12 12 13 13 13 13 14 16 15 13 13 13 12 12 13 13 14 13 13 13 13 13 13 12 13 13 13 12 12 12
11 10 9 9 9 10 9 10 10 13 14 15 14 14 13 13 13 13 13 13 13 13 13 13 13 13 13 13 13 13 12 12
8 8 7 6 7 7 7 7 8 8 8 8 9 10 10 12 13 13 12 13 12 12 13 13 13 13 13 13 13 13 13 13

GFSFLT1_925_temp_084.txt.gz
Temp
20 18 17 18 18 18 16 15 15 14 14 15 14 14 14 15 13 13 14 14 14 14 13 13 14 14 14 15 15 15 15 14
19 16 15 16 16 16 15 14 14 13 14 14 14 14 14 14 14 14 14 13 14 14 13 13 14 14 13 14 15 15 13 13
14 13 13 14 13 13 13 13 13 13 13 13 14 14 14 14 14 14 14 13 13 13 13 13 14 13 13 13 14 13 12 13
14 13 13 13 12 12 13 12 12 12 13 13 13 13 14 14 14 14 13 13 13 12 13 13 13 14 13 13 14 15 13 13
15 14 13 14 12 12 12 13 12 12 12 13 13 13 13 13 14 13 13 13 12 12 14 14 14 13 13 14 14 15 15 13
15 14 14 14 13 12 12 13 12 13 13 14 13 13 13 14 13 13 13 12 12 13 14 14 14 14 14 14 14 15 15 14
15 13 15 14 13 12 12 12 12 12 13 13 13 13 13 13 13 13 13 12 12 12 12 14 14 14 14 14 15 15 16 16
14 13 14 14 13 12 12 12 12 12 13 13 13 13 13 13 12 12 12 12 12 12 12 12 12 13 14 15 15 16 16 16
15 14 14 14 13 12 12 12 12 12 13 13 13 13 13 13 12 12 12 12 12 12 12 13 12 12 13 14 15 16 16 16
16 14 14 14 13 12 12 12 12 12 12 13 12 12 12 12 13 12 12 12 13 12 12 12 12 12 12 13 15 16 15 15
15 13 14 13 13 12 12 12 12 12 12 13 13 12 11 12 12 12 13 13 13 12 12 12 12 12 13 13 13 15 15 15
14 13 13 13 13 12 12 12 12 12 12 12 13 12 12 12 12 12 13 13 13 13 12 12 12 13 13 13 14 14 14 15
14 13 13 13 12 12 12 12 12 12 12 13 12 12 12 12 12 12 13 13 12 12 13 12 13 13 13 14 14 14 14 13
13 13 13 13 13 12 12 12 13 13 13 13 14 13 12 12 13 13 12 12 12 12 12 13 13 13 14 14 14 14 14 14
13 13 12 13 13 13 13 13 13 13 13 13 14 14 14 14 14 13 13 13 12 12 12 13 13 13 13 13 13 13 13 13
11 12 12 12 12 12 12 12 13 13 13 13 13 13 13 14 14 14 14 13 14 13 13 12 13 13 13 13 13 13 13 13
9 9 9 9 9 9 9 9 11 12 12 12 12 12 12 12 13 13 13 13 14 14 14 14 14 13 13 12 12 12 12 12
7 7 7 6 6 6 7 7 7 8 8 8 9 11 11 12 12 12 12 12 13 13 13 13 13 13 12 13 14 13 12 12
4 5 4 4 5 5 4 4 4 4 4 4 5 6 6 8 9 10 11 11 11 12 12 12 12 11 11 11 12 12 11 12

GFSFLT1_925_temp_087.txt.gz
Temp
23 21 20 18 17 17 18 16 15 15 14 14 14 14 14 14 14 13 13 14 14 14 14 13 13 13 13 14 14 13 14 14
22 20 18 16 15 16 15 14 14 14 14 14 14 14 14 13 14 14 13 14 14 14 14 14 13 13 13 13 13 13 13 13
22 19 16 15 15 15 14 14 14 14 14 14 14 14 14 14 13 13 14 13 14 14 13 13 13 12 13 13 14 13 13 13
23 19 16 15 15 14 13 14 14 13 13 13 14 14 14 14 14 14 13 13 13 14 14 13 12 12 13 13 13 14 13 13
22 20 17 15 15 13 13 14 14 13 13 13 13 14 14 14 14 14 14 14 13 13 13 13 12 12 12 13 13 14 14 13
22 19 17 15 13 12 13 13 13 13 13 13 13 13 13 14 14 13 12 12 12 12 12 12 12 12 12 13 13 13 14 14
20 18 16 16 13 12 12 12 13 12 12 13 13 13 13 13 13 12 12 11 12 12 12 13 12 12 13 13 13 13 14 14
18 17 17 16 13 13 12 12 13 12 12 13 13 13 13 13 13 13 12 11 11 11 11 12 12 13 13 13 13 14 15 15
18 17 17 16 14 13 12 12 14 12 12 13 13 13 13 13 13 13 12 12 11 12 12 12 13 13 13 13 14 14 15 15
19 17 17 15 14 13 12 13 13 12 12 13 13 13 13 12 13 13 12 12 12 13 12 12 12 12 12 13 13 14 14 15
18 18 16 15 15 13 12 12 13 12 12 13 13 12 13 13 13 12 12 12 12 12 12 13 12 11 11 12 12 13 15 14
16 16 16 15 14 12 12 12 12 12 12 13 12 12 12 12 12 12 12 12 12 12 12 12 12 12 11 11 11 11 12 13
15 15 15 14 13 12 12 12 12 12 12 13 13 12 12 12 12 12 12 12 12 12 12 12 12 12 12 11 11 12 12 12
14 14 13 13 13 12 12 12 12 12 12 13 13 13 12 12 12 13 12 13 12 12 12 12 12 12 12 12 12 12 13 14
12 13 13 13 13 12 12 13 13 13 13 13 13 13 13 12 13 13 13 13 12 12 12 12 12 12 12 12 12 12 12 13
9 9 10 12 12 12 13 12 13 13 13 13 13 13 13 13 13 12 12 11 12 12 12 12 12 12 12 12 12 13 13 13
7 7 7 8 8 9 8 9 12 12 12 12 12 12 12 12 12 12 12 12 12 11 11 12 11 12 13 13 13 13 13 13
5 5 5 5 5 6 6 6 6 7 7 7 9 10 10 11 11 12 12 12 12 12 12 12 12 10 11 11 12 12 11 12
3 3 3 3 3 3 3 3 3 3 3 3 4 5 5 7 8 9 9 10 10 10 10 10 9 7 7 10 11 11 11 10

GFSFLT1_925_temp_093.txt.gz
Temp
30 30 30 30 30 29 27 25 20 17 17 17 17 17 17 16 16 16 15 15 15 15 15 15 15 14 14 14 14 14 16 18
30 29 29 29 29 28 27 25 21 18 17 16 16 16 16 15 15 15 15 15 15 15 15 15 14 14 14 14 14 14 16 19
30 30 29 29 28 27 26 25 23 18 17 17 19 18 17 16 15 15 14 15 14 14 14 14 14 14 14 13 14 14 15 18
29 30 29 28 28 26 25 25 24 18 18 19 20 18 16 15 15 15 14 14 14 14 14 14 14 14 13 13 14 14 15 16
28 29 29 28 28 26 25 25 23 17 20 22 20 17 16 16 16 15 14 14 14 14 14 14 13 13 13 14 14 14 16 17
27 28 28 28 28 26 24 24 24 19 21 22 20 19 20 18 16 15 14 14 14 14 14 14 13 13 13 13 14 15 16 17
27 27 28 28 28 26 23 23 23 21 21 21 21 20 20 20 18 16 14 14 14 14 14 13 13 13 13 13 14 15 16 17
26 27 28 28 28 24 22 22 23 22 21 20 20 19 19 19 18 16 14 14 13 13 13 13 13 13 13 13 14 15 16 16
25 26 26 27 26 20 19 22 22 21 20 20 19 19 18 18 16 14 13 13 13 13 13 13 13 13 13 14 14 14 15 16
23 24 26 25 22 17 16 21 22 21 20 19 18 18 17 17 15 13 13 12 12 12 13 13 13 13 13 13 14 14 15 15
17 23 25 24 19 15 15 19 21 19 18 18 17 16 16 15 13 12 12 12 11 11 12 12 12 13 13 13 13 14 14 14
13 17 22 23 19 15 14 17 19 19 18 16 16 16 16 15 14 13 12 12 11 11 11 11 12 12 12 12 13 13 13 12
12 11 16 18 17 15 14 17 18 17 17 16 15 16 15 15 14 13 12 11 11 11 11 12 11 11 12 12 12 12 13 13
9 9 9 14 15 14 14 15 15 16 15 15 16 15 15 14 13 12 12 12 11 11 11 11 10 11 11 11 12 12 11 11
8 7 8 8 11 14 14 14 14 15 15 15 16 16 16 15 15 14 13 12 12 12 12 12 11 11 11 11 12 11 11 10
6 6 6 6 6 7 13 13 14 14 14 15 15 16 15 15 15 15 15 14 13 12 12 12 12 12 12 12 12 11 11 11
5 4 4 4 4 5 6 9 13 16 15 14 15 15 14 14 14 14 13 14 14 14 14 14 13 11 12 12 12 11 11 12
3 2 2 2 2 2 3 5 7 8 7 8 9 10 11 11 12 13 12 12 13 13 12 10 10 9 11 12 12 12 12 12
1 1 1 0 0 0 1 2 3 4 4 4 5 6 7 7 7 7 8 9 8 8 7 7 7 8 11 12 12 11 10 10

GFSFLT1_925_temp_096.txt.gz
Temp
30 30 30 30 30 30 29 24 22 20 19 19 18 18 18 18 17 17 17 17 17 17 16 16 15 16 15 15 14 14 14 14
29 30 30 30 30 30 29 25 21 19 19 18 17 17 17 17 17 17 16 16 16 16 16 15 15 14 15 14 14 14 14 14
28 29 29 29 29 29 29 26 20 19 18 18 17 17 17 17 16 17 17 16 16 15 15 15 15 14 14 14 14 14 14 14
28 28 27 28 28 29 28 26 21 20 18 17 18 17 17 16 16 15 16 15 15 15 15 15 15 14 14 14 14 14 14 13
27 27 26 28 28 28 27 26 25 21 19 18 18 19 17 16 15 15 16 15 14 14 14 14 14 14 14 14 14 14 14 14
26 26 26 28 28 27 27 26 25 20 18 19 19 19 17 16 16 16 16 14 14 14 14 14 14 14 14 14 13 13 13 14
26 26 27 27 28 27 26 25 25 20 19 19 21 19 19 18 17 16 15 14 15 14 14 14 14 14 14 14 14 13 13 14
23 25 26 26 27 27 24 24 24 20 19 20 21 19 20 21 17 16 15 14 14 14 14 14 13 14 13 13 13 14 13 14
20 18 22 25 26 24 23 23 24 22 21 21 21 20 20 20 18 17 15 14 14 14 14 14 14 13 13 13 13 13 13 14
17 17 18 25 21 21 21 22 23 23 21 21 21 20 19 18 17 16 14 13 13 13 14 13 13 13 13 13 13 13 13 14
14 15 14 18 18 17 17 19 20 21 20 20 19 18 18 17 15 14 13 12 13 13 13 13 13 13 13 13 13 13 13 14
12 11 11 12 17 16 16 17 18 19 19 18 17 17 17 15 14 13 12 12 12 12 12 13 13 13 13 13 13 13 13 13
10 9 9 8 10 16 16 16 16 18 18 17 16 16 15 15 14 12 12 12 12 11 12 12 12 13 13 13 13 13 13 14
8 7 7 6 7 8 15 14 15 16 16 16 15 15 15 15 13 13 12 12 11 11 11 12 12 12 12 12 13 13 13 13
7 6 5 5 5 5 6 13 14 15 15 15 15 15 15 15 14 13 12 12 11 11 11 12 12 12 12 12 12 13 13 13
6 4 4 3 3 3 4 6 13 14 14 15 15 15 15 15 14 13 13 12 12 11 11 11 12 11 11 11 11 11 11 11
3 3 2 2 2 2 2 3 6 13 13 14 15 15 15 15 15 14 13 13 12 12 12 12 11 10 10 11 11 11 11 11
1 1 1 0 0 -0 1 1 3 6 8 9 11 11 12 12 13 13 13 11 11 10 9 10 8 8 9 11 11 11 11 11
-0 -0 -1 -1 -1 -1 -1 -0 1 2 3 4 5 6 7 7 9 8 8 8 7 7 6 5 6 6 8 10 11 11 9 8

GFSFLT1_925_temp_102.txt.gz
Temp
23 24 25 25 26 26 25 24 24 22 20 20 19 20 20 20 20 19 19 19 19 18 18 17 17 15 15 15 14 14 14 14
22 25 25 26 26 25 24 22 22 19 18 18 18 19 19 19 19 19 19 19 18 18 17 16 16 15 15 15 14 14 14 14
20 22 25 25 26 25 23 22 21 20 19 19 19 19 18 18 19 18 19 19 18 18 17 16 16 15 15 15 14 14 14 14
20 21 21 23 23 25 23 23 20 20 19 18 18 17 17 17 18 19 18 18 18 18 17 17 16 16 15 15 15 14 14 14
19 17 16 17 19 21 23 22 20 19 18 17 17 17 17 17 17 18 19 18 18 17 17 16 16 16 15 14 14 14 14 14
14 14 14 15 15 17 21 21 19 19 18 17 17 17 17 17 16 16 17 18 17 17 17 16 16 15 15 14 14 14 14 14
13 13 12 12 13 15 19 19 18 17 17 17 17 17 16 16 16 16 16 16 17 17 16 16 15 15 14 14 14 14 14 14
10 10 10 10 10 13 16 18 18 17 17 17 17 17 17 16 15 15 15 15 15 15 15 15 15 15 14 14 14 14 13 13
9 9 9 9 9 9 12 17 18 17 17 16 17 17 16 16 16 17 17 15 15 16 15 15 15 14 14 14 14 14 13 13
7 8 7 7 7 7 8 13 16 16 16 16 16 17 17 16 17 17 16 16 15 14 14 14 14 14 14 14 14 14 13 13
6 6 6 5 5 6 7 8 10 15 16 17 18 17 17 17 17 16 16 15 15 14 14 14 14 14 14 14 13 14 13 13
4 5 4 4 4 4 5 6 7 10 15 16 17 17 17 17 16 16 16 15 15 14 14 13 13 13 14 14 14 13 13 13
3 3 3 3 3 3 4 4 5 6 12 14 16 16 16 16 15 15 15 14 13 13 13 13 13 13 13 13 13 13 13 13
2 2 2 2 2 2 2 3 3 5 10 14 15 15 15 14 14 14 15 13 13 12 12 12 12 12 12 12 13 13 13 13
1 1 1 1 0 1 1 2 2 3 6 13 14 14 15 15 15 15 14 13 12 12 12 12 11 12 12 13 13 13 13 13
1 0 0 -0 -0 -0 0 1 1 2 3 7 10 14 14 14 14 14 14 12 12 11 11 11 11 11 11 12 13 13 13 13
-0 -1 -0 -1 -1 -1 -1 -0 0 1 1 2 5 9 13 13 13 12 12 12 11 11 11 11 11 11 11 11 12 12 12 12
-2 -2 -2 -2 -2 -2 -2 -1 -1 -0 -0 0 1 3 5 8 10 10 9 9 9 9 9 8 9 9 11 11 11 11 10 11
-3 -3 -3 -2 -2 -3 -3 -3 -2 -2 -1 -1 -1 0 0 2 3 4 5 5 4 3 4 4 5 6 8 9 10 10 10 9

GFSFLT1_925_temp_105.txt.gz
Temp
21 23 23 23 23 24 24 24 21 20 19 18 18 18 19 20 20 19 19 18 18 17 17 17 16 16 15 15 15 15 15 15
19 21 23 22 23 22 22 22 20 19 18 18 17 17 17 18 19 20 19 18 18 17 17 16 16 16 15 15 15 14 14 14
18 20 22 23 23 22 22 21 21 19 18 18 18 17 17 19 19 19 19 19 18 17 17 16 15 15 15 15 15 14 14 14
18 18 18 19 20 20 20 21 20 19 19 18 18 17 17 17 17 17 18 19 18 18 17 17 16 15 15 15 15 14 14 14
12 12 12 12 14 16 18 20 20 19 18 18 18 18 17 17 17 18 17 17 18 18 17 17 17 16 15 15 15 14 14 14
11 10 10 10 10 12 15 19 19 19 18 18 17 18 18 17 16 17 17 17 17 19 17 16 16 15 15 15 15 14 14 14
10 9 10 9 9 9 13 18 19 19 18 18 17 18 17 16 16 16 16 16 16 18 18 17 17 16 15 15 15 14 14 14
8 8 8 8 8 8 10 14 18 18 17 17 17 17 16 17 16 16 16 15 16 16 16 16 16 16 15 15 14 14 14 14
6 6 6 6 6 6 7 9 11 18 18 17 17 17 17 16 16 16 15 15 15 15 17 17 15 15 15 15 14 14 14 14
3 4 5 5 5 5 6 7 8 12 17 17 16 16 16 17 16 15 15 15 15 16 16 15 15 15 15 14 14 14 14 14
2 3 3 3 3 4 4 6 6 8 14 16 15 16 16 16 16 16 16 16 16 16 15 15 14 14 14 14 14 14 13 13
2 2 2 2 2 3 3 4 5 6 9 13 15 15 16 16 16 15 15 16 15 15 15 14 14 13 14 14 14 13 13 13
2 2 1 1 1 2 2 3 4 5 7 11 14 15 16 15 15 15 15 15 14 14 14 14 13 13 13 13 13 13 13 13
1 1 1 0 0 1 1 2 2 4 6 9 13 14 14 14 14 14 14 14 14 13 13 13 12 12 12 12 12 13 13 13
0 -0 -0 -0 -0 -0 -0 1 1 2 3 5 9 12 14 14 14 14 14 13 13 12 12 12 12 12 11 11 11 12 12 13
-1 -1 -1 -1 -1 -1 -1 -1 -0 1 2 2 3 6 13 13 12 12 12 13 12 12 12 11 11 11 11 11 11 12 13 13
-2 -2 -1 -1 -2 -2 -2 -2 -1 -1 -0 0 1 2 5 8 11 12 12 12 11 11 11 11 10 10 10 11 11 11 12 13
-3 -3 -3 -2 -3 -3 -3 -3 -3 -2 -2 -1 -0 0 0 1 3 6 6 8 9 9 8 8 8 8 9 10 10 11 11 11
-3 -3 -4 -3 -3 -4 -4 -4 -4 -4 -4 -3 -2 -1 -1 -1 -1 -1 0 1 2 3 4 4 4 5 6 8 9 10 9 9

GFSFLT1_925_temp_111.txt.gz
Temp
19 18 18 18 18 19 20 21 20 18 18 17 17 16 17 17 18 17 17 17 16 16 16 16 16 16 16 16 16 15 15 16
18 15 13 14 15 16 16 18 20 18 18 16 16 16 16 16 16 17 16 16 16 16 16 16 16 16 16 16 16 15 14 15
14 12 11 11 11 11 12 13 15 16 19 18 18 17 16 16 16 16 16 16 16 16 16 16 16 16 16 16 15 15 15 14
11 11 10 10 10 10 10 11 12 13 17 19 18 18 17 16 16 16 16 16 16 16 16 15 16 15 15 15 15 15 15 14
9 9 8 8 9 8 9 9 10 12 13 18 19 18 18 18 17 16 16 16 16 16 16 15 15 15 15 15 15 15 15 14
6 6 5 5 6 6 6 7 9 11 12 16 18 19 19 19 18 17 16 16 16 16 16 16 15 15 15 15 15 15 15 15
4 4 4 4 4 4 4 6 7 10 12 14 17 19 19 19 18 17 16 16 16 16 16 16 15 15 15 15 15 15 15 15
3 3 3 2 2 2 3 5 6 7 10 14 17 18 18 18 18 18 17 16 16 15 16 16 15 15 15 15 15 15 15 15
2 2 2 1 1 1 2 4 5 6 8 12 17 17 18 18 18 18 17 16 16 15 15 15 16 15 15 15 15 15 15 15
1 1 1 1 0 0 1 3 4 5 6 8 15 17 17 17 17 17 17 16 16 16 16 16 15 15 15 16 15 15 15 14
-0 -0 -1 -0 -0 -1 0 1 3 4 5 7 11 17 17 16 16 16 16 16 16 16 15 15 15 15 15 15 15 15 15 14
-1 -1 -2 -1 -1 -1 -0 0 1 3 4 6 11 15 16 16 16 16 16 15 15 15 15 15 15 15 15 15 15 15 15 14
-1 -2 -2 -2 -2 -2 -1 -1 -0 1 3 5 7 11 15 15 15 15 15 15 14 14 14 15 15 14 14 15 14 14 14 14
-2 -2 -2 -2 -2 -2 -2 -2 -1 -0 2 3 4 6 11 14 14 14 14 14 14 14 14 14 14 14 14 14 13 13 13 13
-2 -2 -2 -2 -3 -3 -3 -3 -2 -1 1 1 2 2 4 8 12 12 13 13 13 13 13 13 13 12 12 12 12 12 12 12
-3 -3 -3 -3 -3 -3 -4 -4 -3 -2 -1 -0 0 1 1 3 6 7 10 10 10 11 10 10 10 10 9 10 11 11 11 11
-3 -3 -3 -3 -3 -4 -4 -4 -4 -3 -3 -2 -1 -0 0 -0 0 1 4 4 5 6 5 5 4 3 5 8 9 10 10 9
-4 -4 -4 -4 -4 -4 -5 -5 -5 -4 -4 -3 -2 -2 -1 0 -1 -1 -1 -1 0 1 1 1 -0 -1 1 5 7 7 6 6
-4 -5 -5 -5 -5 -5 -5 -5 -5 -5 -4 -4 -4 -3 -3 -1 -1 -2 -1 -2 -1 -3 -3 -2 -3 -3 -1 1 3 3 3 2

GFSFLT1_925_temp_114.txt.gz
Temp
22 21 20 18 18 18 18 19 19 20 20 20 21 20 20 21 21 21 21 19 19 19 20 18 17 17 17 17 18 18 19 18
17 16 16 15 15 15 16 16 17 18 20 21 21 21 20 21 21 21 21 20 19 19 19 18 17 16 16 17 17 17 17 18
14 13 13 13 13 13 13 14 14 15 18 20 21 22 20 20 21 21 20 19 19 19 19 17 16 16 16 16 16 16 16 16
13 12 11 11 11 11 11 11 12 13 14 16 20 21 21 20 20 20 19 19 19 18 18 17 16 16 16 16 16 16 16 15
11 10 9 9 8 8 8 9 10 11 12 14 17 22 22 21 20 18 18 19 18 18 17 16 16 16 16 16 16 16 16 15
10 9 8 8 8 7 6 7 8 9 10 12 15 18 22 22 21 20 19 17 17 17 16 16 16 16 16 16 16 16 16 16
9 8 7 7 6 5 5 5 6 6 7 10 13 16 19 22 22 21 20 17 16 16 16 16 16 16 16 16 16 16 15 16
7 6 6 5 4 3 3 3 3 4 5 7 9 13 17 21 22 22 21 18 16 16 16 16 16 16 16 16 15 15 15 15
5 4 4 3 2 2 2 1 1 2 4 6 7 11 17 20 21 22 21 18 17 16 16 16 16 16 16 16 15 15 15 15
3 3 2 2 0 0 0 -0 0 1 3 5 7 10 16 20 21 21 21 19 17 16 16 16 16 15 15 15 15 15 15 16
1 1 -0 0 -1 -1 -1 -2 -0 0 2 5 6 9 14 19 18 18 19 19 18 17 16 16 15 15 15 15 15 15 15 15
-0 -1 -2 -2 -2 -2 -2 -2 -1 -0 2 4 6 8 16 18 17 17 18 18 18 17 16 16 15 15 15 15 15 15 15 15
-1 -2 -2 -2 -2 -3 -3 -3 -2 -1 1 4 4 6 12 16 17 17 17 17 16 16 15 15 15 15 15 15 15 15 15 15
-0 -1 -3 -3 -3 -3 -4 -3 -2 -1 0 2 3 3 5 8 13 15 15 15 15 15 15 15 15 14 14 15 15 15 14 14
-1 -2 -3 -3 -3 -4 -4 -4 -3 -2 -0 0 1 1 2 3 5 8 10 11 12 12 12 12 12 12 12 12 13 13 13 13
-1 -2 -2 -3 -3 -4 -4 -4 -4 -3 -2 -1 -1 0 0 0 1 2 3 5 5 6 7 6 6 7 7 9 11 11 11 11
-2 -2 -3 -3 -3 -3 -4 -4 -4 -4 -3 -3 -2 -1 -1 -1 -1 -1 -1 0 1 2 2 2 1 2 3 7 8 9 8 8
-3 -2 -3 -3 -3 -3 -3 -4 -4 -4 -4 -4 -3 -2 -2 -2 -1 -1 -2 -2 -2 -2 -2 -1 -1 -0 2 4 6 6 5 4
-3 -4 -4 -4 -3 -3 -2 -2 -3 -4 -4 -4 -3 -3 -3 -3 -2 -3 -3 -3 -3 -3 -3 -3 -3 -3 0 1 2 2 1 -0

GFSFLT1_925_temp_117.txt.gz
Temp
22 20 19 19 19 18 18 19 19 19 20 21 22 22 22 21 22 23 21 21 19 19 21 19 19 20 21 20 20 19 20 20
19 17 17 16 16 16 16 17 17 17 19 21 22 23 22 22 21 23 22 22 21 20 20 20 18 18 19 19 20 20 19 20
18 16 15 14 14 14 14 14 15 15 17 18 21 22 23 23 22 22 22 22 22 21 21 22 19 18 17 18 18 19 19 19
16 16 14 13 13 12 12 12 12 13 14 15 17 19 20 23 22 22 22 22 22 21 21 21 21 19 17 17 17 18 18 18
15 14 13 12 11 11 11 10 10 11 12 13 15 17 20 23 23 21 22 22 22 21 21 20 20 18 18 17 17 17 17 17
13 12 10 10 10 10 9 8 8 9 10 10 11 14 16 19 20 22 21 21 21 21 20 20 20 18 17 17 17 16 17 17
11 9 8 8 8 7 7 7 7 7 8 8 9 10 13 16 19 21 21 21 20 20 20 19 19 18 17 17 16 16 16 17
9 8 6 5 5 5 4 4 5 5 6 6 6 7 9 13 15 18 21 20 20 20 19 18 18 18 17 17 16 16 16 16
6 5 4 3 2 2 2 1 2 3 3 3 4 5 7 10 14 17 19 22 21 20 18 17 17 18 17 16 16 16 16 16
4 3 2 1 1 0 0 -0 0 1 1 1 2 3 6 8 13 16 19 20 22 20 18 16 16 16 17 16 16 16 16 16
3 1 0 -1 -1 -1 -1 -2 -1 -1 -0 0 2 3 6 7 11 16 19 20 21 19 17 16 16 16 16 16 16 16 15 15
1 -0 -1 -2 -2 -2 -2 -3 -2 -1 -1 1 2 5 5 8 12 16 19 20 20 19 17 16 16 16 16 16 16 15 15 15
2 -0 -1 -2 -2 -2 -3 -3 -3 -2 -1 0 3 3 5 8 12 17 19 18 19 19 18 17 16 16 16 15 15 15 15 15
2 0 -1 -2 -2 -2 -3 -3 -3 -3 -1 -0 1 2 3 3 4 6 12 16 16 15 15 15 15 15 15 15 15 15 15 15
1 -0 -1 -1 -2 -2 -2 -3 -3 -3 -2 -1 0 0 0 1 1 2 3 4 6 6 8 8 9 11 12 14 15 14 14 15
-1 -1 -1 -1 -1 -2 -2 -3 -3 -3 -2 -2 -2 -1 -1 -1 -1 -1 -0 0 1 1 2 4 4 5 6 9 11 12 12 12
-1 -1 -1 -2 -2 -2 -1 -2 -3 -3 -3 -3 -3 -2 -2 -2 -2 -2 -2 -2 -2 -1 -1 -1 0 1 4 7 7 8 8 8
-2 -2 -3 -3 -2 -2 -1 -2 -3 -3 -3 -3 -3 -3 -2 -3 -3 -3 -3 -3 -3 -3 -3 -3 -3 -2 -0 2 4 2 0 0
-3 -3 -3 -3 -2 -3 -1 -1 -3 -4 -3 -3 -3 -3 -3 -3 -3 -3 -3 -3 -4 -4 -4 -4 -4 -4 -2 -1 -0 -0 0 -2

GFSFLT1_925_temp_120.txt.gz
Temp
20 18 18 17 16 16 16 16 16 16 17 18 20 20 22 21 21 21 21 20 21 21 20 20 22 21 22 21 21 21 20 20
19 18 17 16 15 14 14 14 14 14 15 16 18 21 21 22 22 22 22 21 20 20 20 20 20 21 21 21 20 20 20 20
18 17 15 14 14 13 13 13 13 12 13 14 14 15 16 17 21 22 22 21 21 19 19 20 19 19 20 20 20 19 19 20
16 15 14 12 12 11 11 11 11 11 11 11 13 14 16 18 19 20 21 21 21 21 19 19 20 19 19 19 19 19 19 19
14 13 12 10 10 9 9 9 8 9 9 10 11 12 13 15 16 18 21 22 22 21 21 19 20 20 19 18 18 19 19 19
12 11 9 8 7 6 6 6 6 6 7 8 9 10 10 12 14 16 17 20 22 21 21 20 20 20 19 18 17 18 18 19
10 8 7 6 5 4 3 3 4 4 4 5 6 7 8 8 10 12 14 17 19 21 21 21 20 20 20 18 17 17 18 18
7 6 4 3 3 2 2 2 1 2 2 3 4 4 5 6 7 9 12 14 17 19 20 20 20 19 19 18 17 17 17 17
5 4 3 2 1 1 0 -0 -0 -0 0 1 2 2 3 4 6 7 10 13 15 18 19 20 20 20 19 18 17 17 17 17
4 3 1 0 -0 -1 -1 -1 -2 -2 -1 -0 0 1 2 3 4 6 8 10 13 16 18 19 19 19 19 18 17 17 17 17
3 1 0 -0 -1 -1 -2 -2 -2 -2 -2 -1 -0 1 2 3 4 5 7 8 12 16 18 19 18 18 19 18 17 16 16 16
1 0 -1 -1 -1 -2 -2 -2 -3 -3 -2 -1 0 2 3 4 5 7 7 8 10 14 18 17 17 16 18 18 16 16 16 16
0 -1 -1 -1 -1 -1 -2 -2 -3 -3 -2 -1 0 1 1 2 3 5 8 10 12 15 18 17 15 15 17 16 16 16 15 15
-0 -1 -1 -2 -2 -1 -2 -2 -3 -3 -2 -2 -1 -0 -0 0 0 1 2 4 5 6 11 11 12 13 15 16 16 15 15 15
-1 -1 -2 -2 -2 -1 -2 -2 -3 -3 -2 -2 -2 -2 -1 -1 -0 -1 -0 0 1 2 3 3 4 7 10 13 15 15 15 15
-2 -2 -2 -2 -2 -2 -2 -2 -3 -3 -3 -2 -2 -2 -2 -2 -2 -2 -2 -1 -0 -1 -1 0 1 2 4 7 10 10 9 8
-2 -2 -2 -2 -2 -2 -2 -3 -3 -3 -3 -3 -3 -3 -2 -2 -3 -3 -3 -3 -2 -2 -2 -2 -2 -1 -0 3 3 3 4 2
-2 -2 -3 -3 -2 -3 -2 -2 -3 -4 -3 -3 -3 -3 -3 -3 -3 -3 -3 -3 -3 -3 -3 -3 -3 -3 -2 -1 -0 -1 -1 -1
-4 -4 -4 -4 -3 -4 -4 -3 -4 -4 -4 -4 -4 -4 -3 -3 -3 -3 -3 -3 -4 -4 -4 -4 -4 -4 -4 -3 -2 -1 -4 -3

GFSFLT1_925_temp_123.txt.gz
Temp
15 14 13 12 12 12 12 12 12 12 12 13 14 14 15 16 17 20 21 21 21 21 21 21 22 21 21 20 20 20 20 20
13 12 11 11 10 10 10 10 10 10 10 10 10 10 12 13 15 16 19 21 20 21 21 21 21 22 21 20 20 20 19 20
12 11 9 9 8 7 7 7 7 7 8 8 9 9 10 11 13 15 18 19 20 21 20 20 20 21 20 20 19 18 19 19
10 9 7 7 6 5 5 5 5 5 5 6 7 8 9 10 11 12 14 15 18 20 20 20 20 19 19 19 19 19 18 17
8 7 6 5 4 3 3 3 3 3 3 3 4 5 7 8 8 9 10 12 14 17 19 20 20 19 18 19 19 19 19 18
6 5 3 3 2 2 1 1 2 1 1 2 2 3 5 6 7 7 8 9 12 15 17 19 19 20 19 18 19 18 18 19
4 3 2 1 1 0 0 0 0 0 0 1 1 1 2 4 5 5 6 7 9 11 14 17 19 18 20 20 18 18 19 19
3 3 2 1 0 -0 -1 -1 -1 -1 -1 -1 -1 0 1 2 3 4 5 6 7 9 12 15 17 19 19 19 19 19 16 17
2 1 0 -0 -0 -1 -1 -1 -1 -2 -2 -2 -2 -1 0 1 2 3 4 5 6 7 9 12 15 17 19 19 19 19 17 14
1 -0 -1 -1 -1 -1 -1 -2 -2 -2 -2 -2 -2 -1 -0 1 1 2 3 4 5 6 7 10 13 15 18 19 18 19 18 17
-0 -1 -1 -1 -2 -2 -1 -2 -2 -3 -2 -2 -1 -0 1 2 2 3 4 4 5 6 6 7 11 13 16 18 18 19 18 17
-1 -2 -2 -2 -2 -2 -2 -2 -3 -3 -2 -2 -1 -0 0 1 2 3 4 5 6 7 7 8 10 13 16 17 18 17 16 16
-2 -2 -2 -2 -2 -2 -2 -3 -3 -3 -2 -2 -2 -1 -1 0 -0 1 2 3 6 7 8 9 11 12 14 16 18 16 16 15
-1 -2 -2 -3 -2 -3 -2 -3 -3 -3 -3 -2 -2 -2 -2 -2 -1 -1 -1 0 1 2 3 4 5 6 9 11 13 16 15 15
-2 -2 -3 -3 -3 -3 -3 -3 -3 -3 -3 -3 -3 -2 -2 -2 -2 -2 -2 -2 -1 -1 -1 -0 1 2 4 7 12 14 15 15
-3 -3 -4 -4 -4 -4 -4 -4 -4 -4 -4 -4 -3 -3 -3 -3 -3 -3 -3 -3 -2 -2 -2 -2 -1 -0 -0 1 3 3 5 5
-3 -3 -4 -4 -4 -5 -4 -4 -5 -5 -4 -5 -4 -4 -3 -3 -3 -3 -4 -4 -4 -3 -3 -3 -3 -2 -1 -0 -0 -1 -1 -0
-4 -4 -5 -6 -5 -6 -5 -5 -5 -5 -5 -5 -6 -5 -5 -4 -3 -3 -4 -4 -5 -5 -4 -3 -3 -3 -3 -1 -2 -1 -2 -3
-5 -6 -6 -6 -6 -6 -6 -6 -5 -5 -6 -6 -6 -7 -6 -5 -5 -5 -4 -5 -5 -5 -5 -5 -4 -4 -4 -3 -3 -3 -4 -4